Flag for U.S.A. Weather past 2 weeks in Lexington, Virginia, U.S.A.

Now
63 °F

Fog.


Feels Like: 63 °F
Forecast: 64 / 87 °F
Wind: 6 mph from Northwest

Location: Hot Springs / Ingalls

Current Time: Aug 28, 2014 at 5:28:56 AM

Latest Report: Aug 28, 2014 at 4:55 AM


Visibility: 2 mi

Pressure: 30.14 "Hg

Humidity: 100%

Dew point: 63 °F

Location of LexingtonLocation

Historic Weather in Lexington — Graph

°F

Lexington temperature yesterday

Maximum temperature yesterday: 75 °F (at 4:15 PM)
Minimum temperature yesterday: 55 °F (at 2:55 AM)
Average temperature yesterday: 65 °F

Past Weeks' High & Low Weather Summary

 TemperatureHumidityPressure
High75 °F (Aug 27, 4:15 PM)100% (Aug 13, 7:55 AM)30.34 "Hg (Aug 13, 7:55 AM)
Low51 °F (Aug 26, 5:15 AM)44% (Aug 16, 3:15 PM)29.94 "Hg (Aug 13, 4:55 AM)
Average62 °F81%30.17 "Hg
* Reported Aug 13 4:15 AM — Aug 28 4:15 AM, Lexington, Weather by CustomWeather, © 2014

Note: Actual official high and low records may vary slightly from our data, if they occured in-between our weather recording intervals... More about our weather records

Advertising

Lexington weather history for previous 24 hours

 ConditionsComfort  
Time TempWeatherWind HumidityBarometerVisibility
4:15 AM
Aug 28
64 °FFog.8 mph100%30.14 "Hg5 mi
3:55 AM64 °FFog.8 mph100%30.14 "Hg5 mi
3:35 AM64 °FFog.10 mph100%30.15 "Hg5 mi
3:15 AM64 °FFog.8 mph100%30.15 "Hg5 mi
2:55 AM64 °FFog.10 mph100%30.15 "Hg5 mi
2:35 AM64 °FPartly cloudy.10 mph100%30.15 "Hg7 mi
2:15 AM65 °FPassing clouds.8 mph100%30.16 "Hg7 mi
1:55 AM65 °FPartly cloudy.8 mph99%30.16 "Hg10 mi
1:35 AM65 °FMostly cloudy.6 mph100%30.17 "Hg7 mi
1:15 AM66 °FLow clouds.8 mph94%30.17 "Hg10 mi
12:55 AM66 °FPassing clouds.10 mph92%30.17 "Hg10 mi
12:35 AM66 °FClear.8 mph91%30.16 "Hg10 mi
12:15 AM66 °FPassing clouds.8 mph91%30.17 "Hg10 mi
11:55 PM
Aug 27
66 °FClear.10 mph89%30.17 "Hg10 mi
11:35 PM66 °FClear.12 mph86%30.17 "Hg10 mi
11:15 PM66 °FClear.14 mph85%30.18 "Hg10 mi
10:55 PM67 °FClear.14 mph83%30.19 "Hg10 mi
10:35 PM67 °FClear.10 mph83%30.19 "Hg10 mi
10:15 PM67 °FPassing clouds.12 mph81%30.18 "Hg10 mi
9:55 PM67 °FClear.10 mph80%30.19 "Hg10 mi
9:35 PM68 °FClear.9 mph78%30.20 "Hg10 mi
9:15 PM68 °FClear.8 mph77%30.19 "Hg10 mi
8:55 PM69 °FSunny.9 mph75%30.18 "Hg10 mi
8:30 PM69 °FSunny.10 mph75%30.17 "Hg10 mi
8:15 PM69 °FSunny.10 mph73%30.16 "Hg10 mi
7:55 PM68 °FSunny.9 mph73%30.16 "Hg10 mi
7:35 PM69 °FSunny.8 mph71%30.16 "Hg10 mi
7:15 PM71 °FScattered clouds.8 mph67%30.16 "Hg10 mi
6:55 PM70 °FScattered clouds.9 mph68%30.17 "Hg10 mi
6:35 PM71 °FScattered clouds.6 mph67%30.18 "Hg10 mi
6:15 PM73 °FPartly sunny.7 mph63%30.18 "Hg10 mi
5:55 PM73 °FScattered clouds.7 mph64%30.18 "Hg10 mi
5:35 PM72 °FScattered clouds.3 mph65%30.19 "Hg10 mi
5:15 PM71 °FPartly sunny.5 mph66%30.20 "Hg10 mi
4:55 PM73 °FBroken clouds.6 mph62%30.20 "Hg10 mi
4:15 PM75 °FScattered clouds.No wind59%30.20 "Hg10 mi
3:55 PM75 °FScattered clouds.5 mph59%30.21 "Hg10 mi
3:15 PM74 °FScattered clouds.3 mph59%30.21 "Hg10 mi
2:55 PM73 °FPartly sunny.No wind58%30.22 "Hg10 mi
1:55 PM72 °FSunny.No wind58%30.23 "Hg10 mi
1:35 PM72 °FSunny.3 mph57%30.23 "Hg10 mi
1:15 PM71 °FSunny.6 mph56%30.25 "Hg10 mi
12:15 PM69 °FSunny.5 mph61%30.26 "Hg10 mi
10:55 AM67 °FSunny.No wind70%30.27 "Hg10 mi
10:35 AM67 °FSunny.5 mph69%30.26 "Hg10 mi
10:15 AM67 °FSunny.3 mph68%30.26 "Hg10 mi
9:55 AM66 °FSunny.5 mph68%30.26 "Hg10 mi
9:35 AM65 °FSunny.6 mph69%30.25 "Hg10 mi
9:15 AM64 °FSunny.6 mph72%30.26 "Hg10 mi
8:55 AM63 °FSunny.8 mph73%30.25 "Hg10 mi
8:35 AM62 °FSunny.9 mph75%30.25 "Hg10 mi
8:15 AM61 °FSunny.9 mph77%30.24 "Hg10 mi
7:55 AM60 °FSunny.10 mph78%30.24 "Hg10 mi
7:35 AM60 °FClear.10 mph80%30.24 "Hg10 mi
7:15 AM59 °FClear.12 mph82%30.24 "Hg10 mi
6:35 AM59 °FClear.10 mph80%30.23 "Hg10 mi
6:10 AM58 °FClear.9 mph89%30.23 "Hg10 mi
5:55 AM57 °FClear.10 mph97%30.23 "Hg10 mi
5:35 AM57 °FClear.9 mph91%30.23 "Hg10 mi
5:15 AM57 °FClear.8 mph95%30.22 "Hg10 mi
Weather by CustomWeather, © 2014

See weather overviewHow to use our weather pages